Back to catalog

STARLINK-11480

AliveCommunicationsVLEO
NORAD 62830·PAYLOAD·🇺🇸 United States

Launched Jan 27, 2025 from Cape Canaveral Space Force Station

Loading…

Next Passes (next 24 hours)

TLE

FreshSource: CelesTrak SupGP

Epoch: Sep 14, 2026, 22:51 UTC

1 62830C 25019B   26257.95256944  .00067357  00000+0  52339-3 0  2571
2 62830  43.0003 245.1722 0001491 261.3186 214.2723 15.70795100    13

Track STARLINK-11480 in real time with AllMySat

Download on the App Store